Hlavní strana
METAR-TAF:

METAR-TAF

Letiště :

Flora Municipal Airport

Flora, Illinois, Spojené státy americké

zeměpisná šířka: 38-39-54N, zeměpisná délka: 088-27-11W, výška: 144 m

Aktuální stav počasí

Zpráva byla vytvořena před 25 minutami, v 11:15 UTC
Jižní vítr 8 kt
Teplota 3°C
Vlhkost vzduchu 81%
Tlak 1030 hPa
Viditelnost: 16.1 km
Jasno

METAR: KFOA 081115Z AUTO 19008KT 10SM CLR 03/00 A3043 RMK AO2

Čas: 05:40 (11:40 UTC)


TAF: chybějící

Stav a předpovědi počasí z více než 4 000 letišť (zprávy METAR a TAF).

Červené a žluté tečky na mapě představují dostupné meteorologické stanice.

Když kurzor umístíte na tečku, zobrazí se název stanice.

Pak kliknutím zobrazíte stav a předpověď počasí.

Chcete-li změnit mapu, kliknutím na zelené tlačítko se znaménkem +mapu přiblížíte, kliknutím na zelené tlačítko se znaménkem – mapu oddálíte a kliknutím na zelené šipky přejdete na sousední mapy.


METAR-TAF: